Location: Newark
(42.9858°N, 0.6717°E)
Time: 07:28:11
(UTC+00:00)

Vanguard 2 - Visible Passes

Search period start: 13 November 2019 00:00
Search period end: 23 November 2019 00:00
Orbit: 554 x 2937 km, 32.9° (Epoch: 12 November)

Date Brightness Start Highest point End Pass type
(mag) Time Alt. Az. Time Alt. Az. Time Alt. Az.
18 Nov 11.7 06:03:05 10° S 06:07:50 13° SSE 06:11:52 10° SE visible
19 Nov 11.5 06:18:12 10° SSW 06:25:45 19° SSE 06:31:30 10° ESE visible
21 Nov 11.7 04:45:14 10° S 04:51:50 15° SSE 04:57:23 10° ESE visible
22 Nov 11.5 05:00:14 10° SSW 05:09:43 20° SSE 05:17:02 10° ESE visible
